Location: Buckland
(65.9785°N, 161.1281°W)
Time: 05:07:10
(UTC+00:00)

Transit 4A - Pass Details

Date: 03 December 2020
Orbit: 864 x 980 km, 66.8° (Epoch: 26 January)

Event Time Altitude Azimuth Distance (km) Brightness Sun altitude
Rises 00:00:36 0° 291° (WNW) 3,693 11.0 0.4°
Reaches altitude 10° 00:03:11 10° 291° (WNW) 2,743 10.4 0.3°
Maximum altitude 00:09:37 79° 206° (SSW) 1,001 8.3 0.0°
Drops below altitude 10° 00:15:57 10° 121° (ESE) 2,701 10.5 -0.2°
Sets 00:18:29 0° 120° (ESE) 3,631 11.1 -0.3°
